TimeCDT,TemperatureF,Dew PointF,Humidity,Sea Level PressureIn,VisibilityMPH,Wind Direction,Wind SpeedMPH,Gust SpeedMPH,PrecipitationIn,Events,Conditions,WindDirDegrees,DateUTC
12:56 AM,80.1,70.0,71,29.77,10.0,SSE,12.7,-,N/A,,Partly Cloudy,160,2013-06-21 05:56:00
1:56 AM,79.0,71.1,77,29.74,10.0,South,11.5,-,N/A,,Scattered Clouds,180,2013-06-21 06:56:00
2:56 AM,80.1,71.1,74,29.76,10.0,South,10.4,18.4,N/A,,Mostly Cloudy,190,2013-06-21 07:56:00
3:56 AM,79.0,71.1,77,29.77,10.0,South,10.4,-,N/A,,Scattered Clouds,170,2013-06-21 08:56:00
4:56 AM,78.1,71.1,79,29.80,10.0,Calm,Calm,-,N/A,,Mostly Cloudy,0,2013-06-21 09:56:00
5:56 AM,75.0,71.1,87,29.80,10.0,NNE,8.1,-,N/A,,Overcast,20,2013-06-21 10:56:00
6:56 AM,75.0,72.0,90,29.80,10.0,ENE,5.8,-,N/A,,Mostly Cloudy,70,2013-06-21 11:56:00
7:03 AM,75.2,71.6,89,29.83,10.0,East,6.9,-,N/A,,Mostly Cloudy,90,2013-06-21 12:03:00
7:56 AM,75.9,72.0,87,29.80,10.0,East,11.5,-,N/A,,Mostly Cloudy,100,2013-06-21 12:56:00
8:15 AM,77.0,71.6,83,29.82,10.0,ESE,12.7,-,N/A,,Mostly Cloudy,110,2013-06-21 13:15:00
8:56 AM,79.0,73.0,82,29.78,10.0,SSE,13.8,-,N/A,,Scattered Clouds,150,2013-06-21 13:56:00
9:46 AM,80.6,71.6,74,29.85,10.0,SSE,11.5,-,N/A,,Overcast,150,2013-06-21 14:46:00
9:56 AM,81.0,72.0,74,29.80,10.0,ESE,11.5,-,N/A,,Mostly Cloudy,120,2013-06-21 14:56:00
10:41 AM,78.8,69.8,74,29.84,10.0,ESE,19.6,31.1,N/A,,Mostly Cloudy,120,2013-06-21 15:41:00
10:56 AM,77.0,68.0,74,29.81,10.0,ESE,20.7,29.9,N/A,,Mostly Cloudy,120,2013-06-21 15:56:00
11:18 AM,78.8,69.8,74,29.83,10.0,SE,16.1,25.3,N/A,,Mostly Cloudy,140,2013-06-21 16:18:00
11:56 AM,81.0,70.0,69,29.79,10.0,SE,19.6,26.5,N/A,,Mostly Cloudy,140,2013-06-21 16:56:00
12:56 PM,84.9,71.1,63,29.75,10.0,SE,21.9,27.6,N/A,,Mostly Cloudy,140,2013-06-21 17:56:00
1:56 PM,87.1,70.0,57,29.73,10.0,SE,21.9,28.8,N/A,,Mostly Cloudy,140,2013-06-21 18:56:00
2:56 PM,86.0,71.1,61,29.72,10.0,SSE,18.4,34.5,N/A,,Mostly Cloudy,160,2013-06-21 19:56:00
3:56 PM,87.1,68.0,53,29.79,10.0,SSW,12.7,25.3,N/A,,Overcast,200,2013-06-21 20:56:00
4:56 PM,84.9,69.1,59,29.79,10.0,WSW,3.5,-,0.00,Rain,Light Rain,240,2013-06-21 21:56:00
5:20 PM,73.4,62.6,69,29.85,10.0,North,20.7,35.7,0.00,,Overcast,360,2013-06-21 22:20:00
5:56 PM,70.0,60.1,71,29.83,10.0,North,26.5,34.5,0.00,,Overcast,10,2013-06-21 22:56:00
6:56 PM,73.0,59.0,61,29.82,6.0,NNE,26.5,33.4,N/A,,Haze,30,2013-06-21 23:56:00
7:56 PM,72.0,57.0,59,29.84,10.0,NE,18.4,32.2,N/A,,Mostly Cloudy,50,2013-06-22 00:56:00
8:56 PM,70.0,59.0,68,29.81,10.0,ENE,16.1,-,N/A,,Mostly Cloudy,70,2013-06-22 01:56:00
9:24 PM,69.8,60.8,73,29.85,10.0,ENE,12.7,21.9,N/A,Thunderstorm,Thunderstorm,60,2013-06-22 02:24:00
9:56 PM,70.0,62.1,76,29.85,10.0,NE,13.8,-,N/A,Thunderstorm,Thunderstorm,50,2013-06-22 02:56:00
10:21 PM,69.8,62.6,78,29.85,10.0,ENE,12.7,-,0.00,Rain-Thunderstorm,Light Thunderstorms and Rain,60,2013-06-22 03:21:00
10:56 PM,69.1,62.1,78,29.83,10.0,NE,16.1,-,0.00,Rain-Thunderstorm,Light Thunderstorms and Rain,50,2013-06-22 03:56:00
11:33 PM,68.0,64.4,88,29.91,5.0,WSW,19.6,36.8,0.00,Rain-Thunderstorm,Light Thunderstorms and Rain,240,2013-06-22 04:33:00
11:38 PM,68.0,64.4,88,29.88,2.5,West,17.3,36.8,0.06,Rain-Thunderstorm,Heavy Thunderstorms and Rain,270,2013-06-22 04:38:00
11:50 PM,68.0,64.4,88,29.83,4.0,NNW,19.6,24.2,0.19,Rain-Thunderstorm,Thunderstorms and Rain,340,2013-06-22 04:50:00
11:56 PM,69.1,64.9,87,29.81,8.0,North,10.4,17.3,0.20,Thunderstorm,Thunderstorm,360,2013-06-22 04:56:00